#timestamp,LO_Frequency,Hit 
1598878815.4,286047000.2,N
1598878835.3,286047000.1,N
1598878855.1,286047001.9,N
1598878875.8,286047004.1,N
1598878895.7,286047004.1,N
1598878915.5,286047001.3,N
1598878935.3,286047002.9,N
1598878955.2,286047001.3,N
1598878975.9,286047002.9,N
1598878995.7,286047005.2,P
1598879015.6,286047004.3,P
1598879035.4,286047004.4,P
1598879055.3,286047004.1,P
1598879075.1,286047001.2,P
1598879076.0,286047001.2,N
1598879095.8,286047000.4,N
1598879115.7,286047000.4,N
1598879135.5,286047000.1,N
1598879155.3,286046999.9,N
1598879175.2,286047002.4,N
1598879195.9,286047002.1,N
1598879215.7,286047002.8,N
1598879235.6,286047002.5,N
1598879255.4,286047004.3,P
1598879275.2,286047001.9,N
1598879295.1,286047002.7,N
1598879296.0,286047002.7,N
1598879315.8,286047002.1,N
1598879335.6,286047002.2,N
1598879355.5,286047002.3,N
1598879375.3,286047002.1,N
1598879395.2,286047004.1,P
1598879415.9,286047000.4,N
1598879435.7,286047000.6,N
1598879455.6,286047000.9,N
1598879475.4,286047000.3,N
1598879495.2,286047000.4,N
1598879515.1,286047000.8,N
1598879516.0,286047000.8,N
1598879535.8,286047000.5,N
1598879555.6,286046998.7,N
1598879575.5,286046998.6,N
1598879595.3,286046998.4,N
1598879615.1,286046998.7,N
1598879635.9,286047000.7,N
1598879655.7,286047000.8,N
1598879675.5,286046998.7,N
1598879695.4,286047000.6,N
1598879715.2,286047000.1,N
1598879735.0,286047000.0,N
1598879735.9,286047000.0,N
1598879755.8,286047000.9,N
1598879775.6,286047002.1,N
1598879795.4,286047001.2,N
1598879815.3,286046999.9,N
1598879835.1,286046999.7,N
1598879836.0,286046999.7,N
1598879855.8,286047000.3,N
1598879875.7,286047000.7,N
1598879895.5,286047002.7,N
1598879915.3,286047000.6,N
1598879935.2,286047000.5,N
1598879955.9,286047001.1,N
1598879975.7,286047001.0,N
1598879995.6,286047000.9,N
1598880015.4,286046998.1,N
1598880035.2,286046998.8,N
1598880055.1,286046998.5,N
1598880056.0,286046998.5,N
1598880075.8,286046999.1,N
1598880095.6,286046998.9,N
1598880115.5,286046998.8,N
1598880135.3,286046999.2,N
1598880155.1,286046999.6,N
1598880175.9,286046999.3,N
1598880195.7,286046996.6,P
1598880215.5,286046999.4,N
1598880235.4,286046999.5,N
1598880255.2,286046996.6,N
1598880275.0,286046997.6,N
1598880275.9,286046997.6,N
1598880295.8,286046997.2,N
1598880315.6,286046997.8,N
1598880335.4,286046997.3,N
1598880355.3,286046997.2,N
1598880375.1,286046996.9,N
1598880395.8,286046997.7,N
1598880415.7,286046997.9,N
1598880435.5,286046997.3,N
1598880455.3,286046996.2,P
1598880475.2,286046999.0,N
1598880495.0,286046999.2,N
1598880495.9,286046999.2,N
1598880515.8,286046999.4,N
1598880535.6,286046996.7,N
1598880555.4,286046996.6,N
1598880575.3,286046996.8,N
1598880595.1,286046996.8,N
1598880596.0,286046996.8,N
1598880615.8,286046997.1,N
1598880635.7,286046994.9,P
1598880655.5,286046999.9,N
1598880675.3,286047001.1,N
1598880695.2,286047000.6,N
1598880715.9,286047001.1,N
1598880735.7,286046998.2,N
1598880755.6,286046999.2,N
1598880775.4,286046998.8,N
1598880795.2,286046998.8,N
1598880815.1,286046998.1,N
1598880816.0,286046998.1,N
1598880835.8,286046999.2,N
1598880855.6,286047001.2,N
1598880875.5,286047000.8,N
1598880895.3,286047001.0,N
1598880915.1,286046998.9,N
1598880935.9,286047001.2,N
1598880955.7,286047000.9,N
1598880975.5,286047001.0,N
1598880995.4,286046998.4,N
1598881015.2,286047001.1,N
1598881035.0,286047000.4,N
1598881035.9,286047000.4,N
1598881055.8,286047000.3,N
1598881075.6,286047001.0,N
1598881095.4,286047001.1,N
1598881115.3,286046998.3,N
1598881135.1,286046998.2,N
1598881136.0,286046998.2,N
1598881155.8,286046998.1,N
1598881175.7,286047000.7,N
1598881195.5,286046998.5,N
1598881215.3,286046999.3,N
1598881235.2,286046999.0,N
1598881255.9,286046999.3,N
1598881275.7,286046999.4,N
1598881295.6,286046999.3,N
1598881315.4,286046999.4,N
1598881335.2,286046999.6,N
1598881355.1,286046998.8,N
1598881356.0,286046998.8,N
1598881375.8,286046999.6,N
1598881395.6,286046999.5,N
1598881415.5,286046996.7,P
1598881435.3,286046997.7,N
1598881455.1,286046996.9,N
1598881475.9,286046996.7,N
1598881495.7,286046996.5,P
1598881515.6,286047000.1,N
1598881535.4,286046999.8,N
1598881555.2,286047000.1,N
1598881575.1,286047001.9,N
1598881576.0,286047001.9,N
1598881595.8,286047001.7,N
1598881615.6,286047001.5,N
1598881635.5,286047004.3,N
1598881655.3,286047001.8,N
1598881675.1,286047004.0,N
1598881695.9,286047001.9,N
1598881715.7,286047001.9,N
1598881735.5,286047001.7,N
1598881755.4,286047004.3,N
1598881775.2,286047002.4,N
1598881795.0,286047002.7,N
1598881795.9,286047002.7,N
1598881815.8,286047001.8,N
1598881835.6,286047002.6,N
1598881855.4,286047002.2,N
1598881875.3,286047002.0,N
1598881895.1,286047000.4,N
1598881896.0,286047000.4,N
1598881915.8,286047000.0,N
1598881935.7,286047000.4,N
1598881955.5,286047001.5,N
1598881975.3,286047000.5,N
1598881995.2,286047002.8,N
1598882015.9,286047000.3,N
1598882035.7,286047002.6,N
1598882055.6,286047000.2,N
1598882075.4,286047000.3,N
1598882095.2,286047000.2,N
1598882115.1,286047000.4,N
1598882116.0,286047000.4,N
1598882135.8,286047000.5,N
1598882155.6,286047000.4,N
1598882175.5,286046998.1,N
1598882195.3,286047000.5,N
1598882215.1,286047000.2,N
1598882235.9,286046998.5,N
1598882255.7,286046998.5,N
1598882275.5,286046998.8,N
1598882295.4,286046998.7,N
1598882315.2,286047000.8,N
1598882335.0,286047001.1,N
1598882335.9,286047001.1,N
1598882355.8,286046998.7,N
1598882375.6,286046998.7,N
1598882395.4,286047001.2,N
